User: anonymous   Login
Location: Caltech
(34.1382°N, 118.1253°W)
Time: 22:53:50
(UTC-07:00)
Language:

Cosmos 1508 Rocket - Orbit

View from above orbital plane
View from above orbital plane
View from above satellite
View from above satellite

Ground track
Ground track

The orbit data is extracted from the following two-line orbital elements,

1 14484U 83111B   14295.80573788  .00063063  00000-0  80190-3 0  6752
2 14484 082.8395 205.0029 0186635 173.3099 274.3300 15.41087862592149
Epoch (UTC): 22 October 2014 19:20:15
Eccentricity: 0.0186635
inclination: 82.8395°
perigee height: 315 km
apogee height: 570 km
right ascension of ascending node: 205.0029°
argument of perigee: 173.3099°
revolutions per day: 15.41087862
mean anomaly at epoch: 274.3300°
orbit number at epoch: 59214

The dashed part of the orbit path shows where the satellite is in the earth's shadow,  

DLR